Reflectivity
-20 -20 -20 -20 -20 -20 -20 -20 -20 -20 -20 -20 -20 -20 -20 -20 -20 -20 -20 -20 -20 -20 -20 -20 -20 -20 -20 -20 -20 -20 -20 -20 -20 -20 -20 -20 -20 -20 -20 -20 -20 -20 -20
-20 -20 -20 -20 -20 -20 -20 -20 -20 -20 -20 -20 -20 -20 -20 -20 -20 -20 -20 -20 -20 -20 -20 -20 -20 -20 -20 -20 -20 -20 -20 -20 -20 -20 -20 -20 -20 -20 -20 -20 -20 -20 -20
-20 -20 -20 -20 -20 -20 -20 -20 -20 -20 -20 -20 -20 -20 -20 -20 -20 -20 -20 -20 -20 -20 -20 -20 -20 -20 -20 -20 -20 -20 -20 -20 -20 -20 -20 -20 -20 -20 -20 -20 -20 -20 -20
-20 -20 -20 -20 -20 -20 -20 -20 -20 -20 -20 -20 -20 -20 -20 -20 -2 -20 -20 -20 -20 -20 -20 -20 -20 -20 -20 -20 -20 -20 -20 -20 -20 -20 -20 -20 -20 -20 -20 -20 -20 -20 -20
-20 -20 -20 -20 -20 -20 -20 -20 -14 -20 -20 12 9 -20 -17 15 -7 -20 -20 -20 -20 -20 -20 -20 -20 -20 -20 -20 -20 -20 -20 -20 -20 -20 -20 -20 -20 -20 -20 -20 -20 -20 -20
-20 -20 -20 -20 -20 -20 -20 -20 10 -7 -20 -20 -10 -19 23 -8 -13 -20 -4 -14 -20 -20 -20 -20 -20 -20 -20 -20 -20 -20 -20 -20 -20 -20 -20 -20 -20 -20 -20 -20 -20 -20 -20
-20 -20 -20 -2 -20 -20 -20 -20 -18 -2 -20 -20 -20 -17 15 16 -20 -20 8 -19 -20 -20 -20 -20 -20 -20 -20 -20 -20 -20 -20 -20 -20 -20 -20 -20 -20 -20 -20 -20 -20 -20 -20
2 -3 -18 -20 -13 -3 -18 -20 -20 -1 4 -20 -20 -20 10 17 -20 -20 -18 -4 -20 -20 -20 -20 -20 -20 -20 -20 -20 -20 -20 -20 -20 -20 -20 -20 -20 -20 -20 -20 -20 -20 -20
-20 -20 2 -3 -19 -20 -20 -20 -9 0 -11 -20 -20 -20 4 10 13 2 22 -1 4 -20 -20 -20 -20 -20 -20 -20 -20 -20 -20 7 -20 -3 -12 -20 -20 -20 -20 -20 -20 -20 -20
-20 -20 -20 -20 -7 4 -2 -20 -20 -20 -16 -10 -4 7 0 0 -3 -6 -0 20 22 15 8 10 4 7 6 -14 2 -6 7 -14 -7 2 -19 -20 -20 -20 -20 -20 -20 -20 -20
-20 -20 -20 -20 -20 -20 -11 -6 -18 -14 -20 -20 -20 -17 -20 -20 -20 -20 -15 18 18 20 10 5 -11 -1 -11 6 6 -7 12 -2 4 8 -10 -20 -20 -20 -20 -20 -20 -20 -20
-20 -20 -20 -20 -20 1 -2 -7 0 -20 -8 1 -5 -12 -4 -16 -20 -20 -20 -13 -19 -19 -20 -20 -20 -20 -20 -6 -2 14 14 9 4 -11 -3 -13 -20 -20 -20 -20 -20 -20 -20
-7 -20 -20 -20 -20 2 4 0 -1 6 4 -14 -19 -20 -20 -17 -18 -9 -4 -20 -20 -20 -17 -18 -12 5 1 12 16 27 16 12 14 13 6 -20 -20 -20 -20 -20 -20 -20 -20
11 13 3 -3 -1 -11 -12 -16 -20 -20 -20 -20 -20 -20 -20 -20 -20 -20 -20 -20 -20 -20 -20 -20 -20 -18 -5 23 20 18 17 11 16 16 -2 -20 -4 -10 -20 -20 -20 -20 -20
12 7 16 10 6 -3 6 -5 -20 -20 -20 -20 -20 -20 -20 -20 -20 -20 -20 -20 -20 -20 -20 -19 -18 -0 25 18 14 25 20 19 19 9 -9 4 0 -20 -20 -20 -20 -20 -20
10 14 10 11 -0 -4 -16 -20 -20 -20 -20 -20 -20 -20 -20 -20 -19 -20 -20 -15 -20 -20 -19 -19 -20 11 14 -2 26 19 20 21 16 -1 -7 2 0 -20 -20 -20 -20 -20 -20
-20 -19 -7 1 -18 -20 -20 -20 -20 -20 -20 -20 -20 -20 -20 -20 -20 -20 -20 -20 -20 2 12 8 -3 15 15 21 14 30 23 20 10 5 0 -2 -11 -20 -20 -20 -20 -20 -20
7 -18 -20 -20 -20 -20 -20 -20 -20 -20 -20 -20 -20 -20 -20 -20 -20 -20 -20 -20 -20 4 4 17 26 34 26 23 23 20 13 11 10 7 2 -7 -20 -20 -20 -20 -20 -20 -10
-5 -19 4 -19 -20 -20 -20 -20 -20 -20 -20 -20 -20 -20 -20 -20 -20 -20 -20 -20 -13 10 29 33 33 32 21 21 19 13 11 9 10 10 -19 -20 -8 -20 -20 -20 -20 -20 -20
12 24 -5 -20 -20 -20 -20 -20 -20 -20 -20 -20 -20 -20 -20 -20 -20 -20 -19 -9 13 31 34 34 32 23 16 20 17 14 13 10 8 -20 -20 -20 -20 -20 -20 -20 -20 -20 -20
-20 -5 -14 -20 -20 -20 -20 -20 -20 -20 -20 -20 -20 -20 -20 -20 -10 22 26 34 38 36 35 30 29 16 17 19 17 9 2 -3 -20 -20 -20 -20 -20 -20 -20 -20 -20 -20 -20
-20 7 -1 -20 -20 -20 -20 -20 -20 -20 -20 -20 -19 -18 -11 26 35 32 32 35 35 32 22 20 19 16 17 16 12 9 7 -13 -20 -20 -20 -20 -20 -20 -20 -20 -20 -20 -20
-20 -3 -18 -20 -20 -20 -20 -20 -20 -15 10 25 11 22 33 34 28 31 33 32 32 21 17 17 15 14 15 16 9 -10 -20 -20 -20 -20 -20 -20 -20 -20 -20 -20 -20 -20 -20
-20 -20 -20 -20 -20 -20 -20 -18 -17 20 34 27 30 34 27 31 31 29 28 24 19 17 14 10 8 4 -6 -7 -20 -20 -20 -20 -20 -20 -20 -20 -20 -20 -20 -20 -20 -20 -20
-20 -20 -20 -20 -20 -20 -19 -4 -1 38 27 28 25 21 30 12 10 15 15 13 15 14 2 -2 -1 -1 -1 -1 -20 -16 -13 -5 -15 -11 -3 -14 -10 -6 -20 -20 -20 -20 -20
-20 -20 -14 -20 -20 -20 -15 -4 4 1 -2 9 17 8 19 16 4 3 8 14 -8 -10 0 -20 3 6 5 -20 -20 -20 -20 -20 -20 -20 -19 -2 3 1 -8 -11 -6 -11 -10
Wind_Speed
16 18 19 21 21 16 21 20 19 19 15 14 14 12 12 11 10 10 12 13 11 11 9 8 8 6 7 7 7 7 7 5 4 5 4 3 3 2 2 2 3 4 4
18 17 19 18 20 20 20 21 20 20 18 14 13 12 11 11 10 10 12 12 12 11 10 9 8 8 6 7 7 7 5 4 3 4 5 5 6 6 4 2 2 3 3
20 18 20 21 21 23 21 18 19 20 20 19 13 12 11 10 11 11 11 12 13 12 10 10 8 8 7 7 7 6 7 5 4 3 3 4 3 7 7 5 2 0 1
19 18 18 21 20 21 17 18 18 17 18 20 17 19 14 13 11 11 11 11 13 12 11 10 9 8 6 7 6 5 4 5 6 4 1 3 4 3 5 5 6 3 3
15 16 17 21 20 18 15 16 18 17 16 15 14 13 15 11 12 11 14 13 13 12 12 11 10 8 6 6 6 5 4 3 4 3 3 1 1 0 4 3 7 6 5
13 12 15 6 17 15 17 15 17 18 18 16 14 16 16 15 13 12 12 10 11 10 12 11 9 8 7 7 6 6 5 4 4 3 2 3 1 2 3 3 3 3 2
12 11 6 8 9 14 15 14 16 17 18 19 16 15 16 17 16 16 13 14 11 11 12 12 10 8 8 8 7 6 6 6 5 4 3 2 2 1 1 1 3 3 2
12 13 11 3 5 5 15 16 17 16 17 17 17 13 16 12 12 14 11 12 12 12 15 12 11 11 10 9 6 5 5 5 4 5 3 4 3 1 2 2 2 4 6
10 11 11 9 1 5 7 9 13 15 16 17 15 16 15 15 14 16 14 12 12 12 15 14 13 11 11 10 9 6 5 6 4 4 4 4 3 2 2 2 2 3 4
9 7 7 6 6 4 5 9 13 15 16 16 14 13 13 13 11 12 13 13 13 14 14 14 13 13 11 10 8 7 6 6 4 4 4 3 3 3 2 3 3 3 5
14 11 5 4 4 4 4 5 9 13 15 16 15 15 14 13 10 11 12 12 14 15 16 14 15 13 11 10 8 7 7 6 6 4 4 3 3 4 4 4 4 4 4
16 14 10 2 4 4 5 7 7 9 9 10 13 15 14 15 12 12 13 13 15 17 17 16 16 15 13 11 9 8 8 6 5 4 5 4 4 4 4 4 4 4 5
15 15 13 9 7 4 6 7 8 10 11 12 13 13 14 15 16 14 14 14 15 17 17 16 16 14 12 11 8 7 7 5 5 5 4 4 4 6 3 2 6 4 5
13 15 12 12 10 7 7 8 9 11 11 12 13 13 15 15 16 17 17 16 16 16 18 15 15 13 12 12 10 10 9 7 5 3 3 3 4 5 2 6 4 4 5
15 13 14 13 12 11 10 9 9 9 11 13 14 14 13 14 13 15 16 18 18 17 18 18 16 14 13 10 10 9 9 8 7 5 4 3 9 9 7 5 5 6 5
17 14 15 16 13 12 12 13 7 9 11 12 14 15 13 13 13 14 16 15 17 19 18 18 17 17 11 17 13 9 8 9 8 8 6 6 5 6 4 2 2 5 4
15 13 11 13 14 14 12 15 11 10 12 13 14 14 15 14 14 16 16 17 16 15 17 17 18 17 14 22 17 11 7 6 6 6 6 6 5 4 5 9 9 9 8
16 12 10 12 13 13 14 14 15 10 12 14 13 14 14 15 15 15 16 17 15 15 15 15 15 13 13 23 19 15 9 7 6 6 5 6 5 4 1 6 7 6 6
19 15 13 12 14 15 13 15 15 13 12 13 13 14 14 14 15 14 13 13 14 14 13 13 14 14 15 23 20 13 9 9 9 9 7 5 5 6 1 6 7 7 7
15 13 13 11 14 14 11 14 14 11 10 11 9 8 14 12 13 15 15 12 13 12 10 12 12 17 15 21 20 13 6 8 7 8 9 7 3 3 2 6 6 7 6
17 20 10 13 15 11 11 13 11 7 9 12 12 13 14 14 13 12 11 11 11 12 13 13 11 14 14 16 19 16 7 6 6 6 7 9 10 5 3 5 7 6 8
18 15 12 11 11 10 10 12 7 4 7 13 13 13 14 11 12 14 9 11 13 14 13 13 10 9 11 14 15 14 8 2 7 7 4 9 9 4 4 6 3 8 8
18 13 10 11 7 7 7 2 3 6 8 10 11 12 12 10 11 13 13 11 11 11 10 9 8 8 7 8 14 12 8 3 4 4 9 11 5 5 8 12 8 8 6
15 14 12 10 5 3 5 2 5 5 9 9 11 10 12 11 10 9 9 10 9 9 9 9 9 8 9 9 9 8 6 5 6 5 4 3 4 7 6 6 10 6 5
13 11 9 7 1 8 4 5 6 8 8 10 10 10 10 12 10 9 8 8 8 9 9 8 9 9 9 9 12 11 9 8 6 6 4 6 7 6 6 5 4 5 6
11 7 7 2 6 7 5 6 8 11 13 12 10 9 9 9 9 10 10 15 11 10 9 10 8 5 6 16 14 10 10 11 8 4 6 6 5 5 5 6 6 7 7
Wind_Direction
217 204 214 190 212 196 171 178 185 184 184 178 177 175 181 173 172 172 160 176 164 171 174 161 168 183 173 148 160 149 154 146 156 150 144 141 158 197 138 127 69 56 67
228 205 194 205 204 197 178 181 188 185 193 186 182 180 179 174 176 170 169 177 168 170 175 168 172 180 148 162 174 171 149 133 187 237 186 187 177 190 207 146 110 53 9
243 226 186 198 206 207 182 189 188 186 194 192 183 177 174 170 177 172 177 176 172 176 177 178 169 170 169 166 170 183 183 156 147 265 292 233 237 152 157 183 130 3 28
252 236 199 196 203 209 183 181 190 194 196 196 187 185 181 179 182 172 177 170 174 176 173 175 169 176 173 160 164 180 176 171 158 160 167 351 348 247 182 174 170 187 234
344 322 221 191 192 200 195 182 188 191 197 209 197 182 185 192 183 175 169 172 174 173 175 173 174 174 168 162 151 150 167 193 158 207 162 172 123 240 295 253 171 190 174
13 348 325 278 172 189 205 183 188 191 191 196 203 188 197 193 183 170 171 175 171 172 177 177 175 168 158 158 156 144 150 136 137 132 166 202 221 215 262 259 271 317 166
28 19 345 274 185 185 198 193 194 199 185 188 202 200 196 198 185 173 176 176 174 175 175 175 172 166 159 157 149 151 139 151 147 151 144 127 106 348 300 266 266 270 236
26 19 25 12 331 254 190 201 204 209 189 187 200 202 204 209 190 183 177 177 178 176 165 175 170 164 156 152 147 146 149 123 130 140 161 124 114 262 313 312 298 277 241
36 26 9 7 27 218 234 203 216 220 203 195 197 202 203 214 191 183 182 179 169 170 165 168 168 158 156 153 158 138 139 124 142 144 155 146 154 173 201 271 286 310 289
9 14 22 360 337 321 226 216 217 222 219 209 194 203 201 214 189 177 181 179 169 159 163 164 157 156 158 156 152 143 142 142 155 160 174 163 168 162 212 221 238 233 266
340 339 354 9 311 264 254 247 233 226 221 215 186 197 206 206 188 177 173 167 162 153 162 158 155 155 153 152 148 148 129 157 152 162 162 189 156 208 205 223 244 252 255
329 329 320 308 283 278 240 227 217 238 242 231 200 193 195 193 190 179 179 164 163 163 160 159 155 155 154 155 145 146 146 157 161 173 162 177 215 220 230 234 261 272 278
318 316 313 310 299 255 250 240 225 224 225 224 213 202 202 189 187 177 168 165 160 157 161 156 160 149 147 138 141 132 150 152 153 169 195 179 233 236 236 284 258 265 269
303 303 302 303 303 284 231 253 232 215 222 219 207 213 203 204 191 178 173 156 156 163 160 154 150 145 151 133 144 161 157 155 150 133 194 149 232 288 312 265 269 281 292
309 296 295 293 297 295 288 226 245 232 214 219 208 204 199 201 184 183 162 162 160 162 158 149 145 145 139 152 157 162 159 156 139 156 182 160 59 51 18 314 346 326 307
300 295 292 293 302 306 312 304 254 244 227 219 216 204 187 185 170 160 167 163 163 164 158 154 148 146 153 145 144 139 154 161 172 176 173 145 148 185 213 217 281 300 305
287 288 318 314 312 306 306 301 280 237 234 222 214 206 197 171 167 163 172 166 168 163 158 151 145 142 142 144 140 147 148 163 175 188 174 183 145 210 252 214 235 236 230
323 315 302 296 301 306 302 298 292 253 218 222 213 205 183 175 161 169 172 167 165 162 148 142 143 141 146 148 151 162 154 164 173 198 187 188 201 137 239 294 284 277 265
297 296 287 318 309 294 301 309 297 269 238 220 214 208 176 166 163 164 170 159 148 146 143 149 145 138 143 151 155 164 172 175 183 193 184 211 186 116 306 288 277 282 284
295 281 293 313 295 294 312 301 298 291 254 227 209 198 148 148 147 150 151 152 144 145 143 137 131 135 146 157 160 171 175 196 197 179 149 165 201 128 268 282 288 280 293
313 309 302 288 293 296 300 300 308 330 73 70 84 90 106 117 128 133 144 145 142 134 131 129 129 140 155 164 165 184 215 203 190 199 202 157 163 175 232 289 288 328 329
289 287 305 292 301 308 303 288 66 53 84 102 109 119 125 132 143 145 139 135 135 130 128 132 133 140 144 155 171 188 222 302 194 210 196 123 154 176 246 262 319 310 291
288 289 285 296 305 311 321 3 108 113 97 103 119 125 122 136 137 136 133 128 127 129 131 133 135 132 145 154 174 184 190 200 270 206 91 112 150 221 253 232 235 261 271
298 308 307 283 277 342 54 62 113 99 109 113 114 118 118 119 123 124 125 125 134 135 138 142 144 147 169 163 165 182 183 187 193 152 168 192 245 270 270 255 238 240 305
296 301 285 284 298 91 93 122 115 120 108 114 114 115 121 122 123 112 122 127 129 141 148 155 158 164 176 171 171 182 189 183 197 187 198 212 228 242 245 275 300 294 296
290 266 265 218 109 116 137 139 141 131 130 124 121 127 129 128 123 117 101 81 100 131 153 143 150 137 168 153 153 156 124 116 134 199 240 241 248 270 296 302 299 298 299